Broomfield, CO

8:19 PM MST on February 20, 2017 (GMT -0700)
Jeffco

Weather History for KBJC - April, 2014

Change the Weather History Date:

Thursday, April 17, 2014

  Actual Average Record
Temperature  
Mean Temperature 47 °F -  
Max Temperature 62 °F 56 °F 82 °F (2006)
Min Temperature 32 °F 35 °F 19 °F (1999)
Degree Days  
Heating Degree Days 18    
Moisture  
Dew Point 30 °F    
Average Humidity 67    
Maximum Humidity 93    
Minimum Humidity 20    
Precipitation  
Precipitation 0.00 in - - ()
Sea Level Pressure  
Sea Level Pressure 30.05 in    
Wind  
Wind Speed 5 mph (SSW)    
Max Wind Speed 10 mph    
Max Gust Speed -    
Visibility 10 miles    
Events      
Averages and records for this station are not official NWS values.
T = Trace of Precipitation, MM = Missing Value Source: NWS Daily Summary

Daily Weather History Graph

Daily Weather History Graph

Search for Another Location

Airport or City:

Trip Planner

Search our weather history database for the weather conditions in past years. The results will help you decide how hot, cold, wet, or windy it might be!

Date:

Astronomy

Apr. 17, 2014 Rise Set
Actual Time 6:19 AM MDT 7:40 PM MDT
Civil Twilight 5:51 AM MDT 8:09 PM MDT
Nautical Twilight 5:17 AM MDT 8:43 PM MDT
Astronomical Twilight 4:42 AM MDT 9:18 PM MDT
Moon 10:29 PM MDT (4/17) 7:53 AM MDT (4/17)
Length of Visible Light 14h 17m
Length of Day
13h 21m
Waning Gibbous, 93% of the Moon is Illuminated
Apr 17
Waning Gibbous
Apr 22
Last Quarter
Apr 29
New
May 6
First Quarter
May 14
Full

Hourly Weather History & Observations

Time (MDT) Temp. Windchill Dew Point Humidity Pressure Visibility Wind Dir Wind Speed Gust Speed Precip Events Conditions
12:15 AM 39.2 °F 35.0 °F 32.0 °F 75% 30.10 in 10.0 mi South 5.8 mph - N/A   Clear
12:35 AM 39.2 °F 35.9 °F 32.0 °F 75% 30.10 in 10.0 mi South 4.6 mph - N/A   Clear
12:55 AM 37.4 °F 33.8 °F 32.0 °F 81% 30.09 in 10.0 mi SSE 4.6 mph - N/A   Clear
1:15 AM 37.4 °F 34.9 °F 32.0 °F 81% 30.09 in 10.0 mi SSE 3.5 mph - N/A   Mostly Cloudy
1:34 AM 37.4 °F 34.9 °F 32.0 °F 81% 30.09 in 10.0 mi South 3.5 mph - N/A   Scattered Clouds
1:55 AM 37.4 °F - 32.0 °F 81% 30.08 in 10.0 mi Calm Calm - N/A   Clear
2:15 AM 37.4 °F 34.9 °F 32.0 °F 81% 30.08 in 10.0 mi SSW 3.5 mph - N/A   Clear
2:35 AM 35.6 °F 32.8 °F 32.0 °F 87% 30.07 in 10.0 mi SSW 3.5 mph - N/A   Clear
2:55 AM 35.6 °F - 32.0 °F 87% 30.07 in 10.0 mi Calm Calm - N/A   Clear
3:15 AM 35.6 °F 31.7 °F 32.0 °F 87% 30.07 in 10.0 mi South 4.6 mph - N/A   Clear
3:35 AM 33.8 °F 30.8 °F 32.0 °F 93% 30.06 in 10.0 mi SSW 3.5 mph - N/A   Clear
3:55 AM 33.8 °F 30.8 °F 32.0 °F 93% 30.06 in 10.0 mi SW 3.5 mph - N/A   Clear
4:15 AM 32.0 °F 27.5 °F 30.2 °F 93% 30.06 in 10.0 mi SW 4.6 mph - N/A   Clear
4:35 AM 32.0 °F 28.7 °F 30.2 °F 93% 30.06 in 10.0 mi WSW 3.5 mph - N/A   Clear
4:55 AM 32.0 °F 26.4 °F 30.2 °F 93% 30.06 in 10.0 mi West 5.8 mph - N/A   Clear
5:15 AM 32.0 °F 26.4 °F 30.2 °F 93% 30.06 in 10.0 mi West 5.8 mph - N/A   Clear
5:35 AM 32.0 °F 27.5 °F 30.2 °F 93% 30.06 in 10.0 mi West 4.6 mph - N/A   Clear
5:45 AM 32.0 °F 26.4 °F 28.4 °F 87% 30.06 in 30.0 mi West 5.8 mph - N/A   Partly Cloudy
5:55 AM 32.0 °F 26.4 °F 28.4 °F 87% 30.06 in 10.0 mi West 5.8 mph - N/A   Clear
6:49 AM 35.6 °F 29.2 °F 28.4 °F 75% 30.07 in 50.0 mi WNW 8.1 mph - N/A   Scattered Clouds
7:49 AM 37.4 °F 30.8 °F 32.0 °F 81% 30.09 in 50.0 mi NNW 9.2 mph - N/A   Scattered Clouds
8:49 AM 41.0 °F 37.1 °F 33.8 °F 76% 30.10 in 50.0 mi North 5.8 mph - N/A   Scattered Clouds
11:53 AM 53.6 °F - 30.2 °F 41% 30.08 in 50.0 mi Calm Calm - N/A   Mostly Cloudy
12:45 PM 57.2 °F - 26.6 °F 31% 30.06 in 40.0 mi ENE 9.2 mph - N/A   Mostly Cloudy
1:50 PM 59.0 °F - 26.6 °F 29% 30.04 in 40.0 mi ENE 4.6 mph - N/A   Scattered Clouds
2:45 PM 62.6 °F - 24.8 °F 24% 30.03 in 50.0 mi ESE 10.4 mph - N/A   Partly Cloudy
3:50 PM 62.6 °F - 21.2 °F 20% 30.01 in 50.0 mi ENE 8.1 mph - N/A   Partly Cloudy
4:50 PM 62.6 °F - 24.8 °F 24% 30.00 in 50.0 mi ESE 5.8 mph - N/A   Partly Cloudy
5:50 PM 62.6 °F - 24.8 °F 24% 29.99 in 50.0 mi SE 3.5 mph - N/A   Partly Cloudy
6:49 PM 60.8 °F - 28.4 °F 29% 29.99 in 50.0 mi SE 5.8 mph - N/A   Partly Cloudy
7:50 PM 57.2 °F - 30.2 °F 36% 29.99 in 50.0 mi SE 6.9 mph - N/A   Scattered Clouds
8:45 PM 53.6 °F - 32.0 °F 44% 30.00 in 30.0 mi Calm Calm - N/A   Scattered Clouds
9:45 PM 53.6 °F - 32.0 °F 44% 30.00 in 30.0 mi Calm Calm - N/A   Scattered Clouds
11:15 PM 46.4 °F - 32.0 °F 57% 30.01 in 10.0 mi Calm Calm - N/A   Clear
11:35 PM 46.4 °F 43.5 °F 32.0 °F 57% 30.01 in 10.0 mi SSW 5.8 mph - N/A   Clear
11:55 PM 44.6 °F 42.2 °F 32.0 °F 61% 30.01 in 10.0 mi West 4.6 mph - N/A   Clear